Year,Month,Day,Hour,Minute,Value (Times are PST for windgust in km/hr)
2012,03,12,00,00,27.40
2012,03,12,00,01,29.00
2012,03,12,00,02,24.20
2012,03,12,00,03,25.70
2012,03,12,00,04,17.70
2012,03,12,00,05,4.80
2012,03,12,00,06,19.30
2012,03,12,00,07,19.30
2012,03,12,00,08,20.90
2012,03,12,00,09,22.50
2012,03,12,00,10,22.50
2012,03,12,00,11,19.30
2012,03,12,00,12,30.60
2012,03,12,00,13,29.00
2012,03,12,00,14,24.20
2012,03,12,00,15,19.30
2012,03,12,00,16,25.70
2012,03,12,00,17,30.60
2012,03,12,00,18,19.30
2012,03,12,00,19,27.40
2012,03,12,00,20,22.50
2012,03,12,00,21,17.70
2012,03,12,00,22,22.50
2012,03,12,00,23,19.30
2012,03,12,00,24,25.70
2012,03,12,00,25,30.60
2012,03,12,00,26,24.20
2012,03,12,00,27,16.10
2012,03,12,00,28,22.50
2012,03,12,00,29,19.30
2012,03,12,00,30,27.40
2012,03,12,00,31,20.90
2012,03,12,00,32,17.70
2012,03,12,00,33,17.70
2012,03,12,00,34,16.10
2012,03,12,00,35,16.10
2012,03,12,00,36,17.70
2012,03,12,00,37,29.00
2012,03,12,00,38,29.00
2012,03,12,00,39,29.00
2012,03,12,00,40,17.70
2012,03,12,00,41,30.60
2012,03,12,00,42,20.90
2012,03,12,00,43,37.00
2012,03,12,00,44,22.50
2012,03,12,00,45,16.10
2012,03,12,00,46,17.70
2012,03,12,00,47,30.60
2012,03,12,00,48,19.30
2012,03,12,00,49,17.70
2012,03,12,00,50,17.70
2012,03,12,00,51,14.50
2012,03,12,00,52,30.60
2012,03,12,00,53,27.40
2012,03,12,00,54,22.50
2012,03,12,00,55,16.10
2012,03,12,00,56,22.50
2012,03,12,00,57,20.90
2012,03,12,00,58,22.50
2012,03,12,00,59,22.50
2012,03,12,01,00,19.30
2012,03,12,01,01,22.50
2012,03,12,01,02,29.00
2012,03,12,01,03,33.80
2012,03,12,01,04,25.70
2012,03,12,01,05,30.60
2012,03,12,01,06,29.00
2012,03,12,01,07,25.70
2012,03,12,01,08,20.90
2012,03,12,01,09,20.90
2012,03,12,01,10,32.20
2012,03,12,01,11,30.60
2012,03,12,01,12,27.40
2012,03,12,01,13,25.70
2012,03,12,01,14,24.20
2012,03,12,01,15,25.70
2012,03,12,01,16,27.40
2012,03,12,01,17,20.90
2012,03,12,01,18,22.50
2012,03,12,01,19,22.50
2012,03,12,01,20,29.00
2012,03,12,01,21,25.70
2012,03,12,01,22,17.70
2012,03,12,01,23,20.90
2012,03,12,01,24,16.10
2012,03,12,01,25,22.50
2012,03,12,01,26,22.50
2012,03,12,01,27,25.70
2012,03,12,01,28,17.70
2012,03,12,01,29,16.10
2012,03,12,01,30,22.50
2012,03,12,01,31,17.70
2012,03,12,01,32,19.30
2012,03,12,01,33,19.30
2012,03,12,01,34,20.90
2012,03,12,01,35,16.10
2012,03,12,01,36,24.20
2012,03,12,01,37,16.10
2012,03,12,01,38,20.90
2012,03,12,01,39,14.50
2012,03,12,01,40,19.30
2012,03,12,01,41,29.00
2012,03,12,01,42,38.60
2012,03,12,01,43,37.00
2012,03,12,01,44,27.40
2012,03,12,01,45,29.00
2012,03,12,01,46,25.70
2012,03,12,01,47,25.70
2012,03,12,01,48,32.20
2012,03,12,01,49,22.50
2012,03,12,01,50,19.30
2012,03,12,01,51,17.70
2012,03,12,01,52,16.10
2012,03,12,01,53,24.20
2012,03,12,01,54,19.30
2012,03,12,01,55,16.10
2012,03,12,01,56,14.50
2012,03,12,01,57,20.90
2012,03,12,01,58,12.90
2012,03,12,01,59,24.20
2012,03,12,02,00,24.20
2012,03,12,02,01,27.40
2012,03,12,02,02,17.70
2012,03,12,02,03,16.10
2012,03,12,02,04,29.00
2012,03,12,02,05,25.70
2012,03,12,02,06,25.70
2012,03,12,02,07,24.20
2012,03,12,02,08,16.10
2012,03,12,02,09,24.20
2012,03,12,02,10,16.10
2012,03,12,02,11,33.80
2012,03,12,02,12,32.20
2012,03,12,02,13,30.60
2012,03,12,02,14,17.70
2012,03,12,02,15,29.00
2012,03,12,02,16,22.50
2012,03,12,02,17,25.70
2012,03,12,02,18,40.20
2012,03,12,02,19,37.00
2012,03,12,02,20,43.50
2012,03,12,02,21,29.00
2012,03,12,02,22,20.90
2012,03,12,02,23,25.70
2012,03,12,02,24,17.70
2012,03,12,02,25,30.60
2012,03,12,02,26,40.20
2012,03,12,02,27,43.50
2012,03,12,02,28,29.00
2012,03,12,02,29,29.00
2012,03,12,02,30,27.40
2012,03,12,02,31,20.90
2012,03,12,02,32,38.60
2012,03,12,02,33,33.80
2012,03,12,02,34,37.00
2012,03,12,02,35,27.40
2012,03,12,02,36,29.00
2012,03,12,02,37,27.40
2012,03,12,02,38,33.80
2012,03,12,02,39,40.20
2012,03,12,02,40,32.20
2012,03,12,02,41,38.60
2012,03,12,02,42,32.20
2012,03,12,02,43,38.60
2012,03,12,02,44,37.00
2012,03,12,02,45,32.20
2012,03,12,02,46,37.00
2012,03,12,02,47,32.20
2012,03,12,02,48,27.40
2012,03,12,02,49,33.80
2012,03,12,02,50,32.20
2012,03,12,02,51,38.60
2012,03,12,02,52,30.60
2012,03,12,02,53,25.70
2012,03,12,02,54,40.20
2012,03,12,02,55,35.40
2012,03,12,02,56,33.80
2012,03,12,02,57,29.00
2012,03,12,02,58,38.60
2012,03,12,02,59,43.50
2012,03,12,03,00,32.20
2012,03,12,03,01,38.60
2012,03,12,03,02,40.20
2012,03,12,03,03,37.00
2012,03,12,03,04,46.70
2012,03,12,03,05,30.60
2012,03,12,03,06,24.20
2012,03,12,03,07,17.70
2012,03,12,03,08,51.50
2012,03,12,03,09,38.60
2012,03,12,03,10,46.70
2012,03,12,03,11,41.80
2012,03,12,03,12,35.40
2012,03,12,03,13,35.40
2012,03,12,03,14,46.70
2012,03,12,03,15,45.10
2012,03,12,03,16,43.50
2012,03,12,03,17,38.60
2012,03,12,03,18,41.80
2012,03,12,03,19,30.60
2012,03,12,03,20,30.60
2012,03,12,03,21,30.60
2012,03,12,03,22,37.00
2012,03,12,03,23,43.50
2012,03,12,03,24,38.60
2012,03,12,03,25,37.00
2012,03,12,03,26,25.70
2012,03,12,03,27,27.40
2012,03,12,03,28,30.60
2012,03,12,03,29,30.60
2012,03,12,03,30,53.10
2012,03,12,03,31,43.50
2012,03,12,03,32,30.60
2012,03,12,03,33,29.00
2012,03,12,03,34,33.80
2012,03,12,03,35,35.40
2012,03,12,03,36,61.20
2012,03,12,03,37,45.10
2012,03,12,03,38,38.60
2012,03,12,03,39,41.80
2012,03,12,03,40,37.00
2012,03,12,03,41,38.60
2012,03,12,03,42,40.20
2012,03,12,03,43,49.90
2012,03,12,03,44,53.10
2012,03,12,03,45,48.30
2012,03,12,03,46,43.50
2012,03,12,03,47,40.20
2012,03,12,03,48,43.50
2012,03,12,03,49,45.10
2012,03,12,03,50,40.20
2012,03,12,03,51,45.10
2012,03,12,03,52,46.70
2012,03,12,03,53,29.00
2012,03,12,03,54,30.60
2012,03,12,03,55,46.70
2012,03,12,03,56,27.40
2012,03,12,03,57,32.20
2012,03,12,03,58,41.80
2012,03,12,03,59,38.60
2012,03,12,04,00,38.60
2012,03,12,04,01,35.40
2012,03,12,04,02,29.00
2012,03,12,04,03,48.30
2012,03,12,04,04,40.20
2012,03,12,04,05,41.80
2012,03,12,04,06,48.30
2012,03,12,04,07,29.00
2012,03,12,04,08,41.80
2012,03,12,04,09,29.00
2012,03,12,04,10,45.10
2012,03,12,04,11,46.70
2012,03,12,04,12,54.70
2012,03,12,04,13,49.90
2012,03,12,04,14,41.80
2012,03,12,04,15,48.30
2012,03,12,04,16,40.20
2012,03,12,04,17,40.20
2012,03,12,04,18,45.10
2012,03,12,04,19,57.90
2012,03,12,04,20,54.70
2012,03,12,04,21,46.70
2012,03,12,04,22,37.00
2012,03,12,04,23,35.40
2012,03,12,04,24,41.80
2012,03,12,04,25,32.20
2012,03,12,04,26,38.60
2012,03,12,04,27,35.40
2012,03,12,04,28,53.10
2012,03,12,04,29,46.70
2012,03,12,04,30,37.00
2012,03,12,04,31,43.50
2012,03,12,04,32,51.50
2012,03,12,04,33,56.30
2012,03,12,04,34,51.50
2012,03,12,04,35,54.70
2012,03,12,04,36,45.10
2012,03,12,04,37,45.10
2012,03,12,04,38,49.90
2012,03,12,04,39,46.70
2012,03,12,04,40,51.50
2012,03,12,04,41,41.80
2012,03,12,04,42,41.80
2012,03,12,04,43,33.80
2012,03,12,04,44,53.10
2012,03,12,04,45,51.50
2012,03,12,04,46,41.80
2012,03,12,04,47,53.10
2012,03,12,04,48,40.20
2012,03,12,04,49,37.00
2012,03,12,04,50,49.90
2012,03,12,04,51,53.10
2012,03,12,04,52,40.20
2012,03,12,04,53,22.50
2012,03,12,04,54,56.30
2012,03,12,04,55,53.10
2012,03,12,04,56,49.90
2012,03,12,04,57,64.40
2012,03,12,04,58,46.70
2012,03,12,04,59,64.40
2012,03,12,05,00,56.30
2012,03,12,05,01,48.30
2012,03,12,05,02,49.90
2012,03,12,05,03,51.50
2012,03,12,05,04,45.10
2012,03,12,05,05,49.90
2012,03,12,05,06,57.90
2012,03,12,05,07,56.30
2012,03,12,05,08,37.00
2012,03,12,05,09,49.90
2012,03,12,05,10,53.10
2012,03,12,05,11,53.10
2012,03,12,05,12,43.50
2012,03,12,05,13,51.50
2012,03,12,05,14,40.20
2012,03,12,05,15,37.00
2012,03,12,05,16,38.60
2012,03,12,05,17,40.20
2012,03,12,05,18,41.80
2012,03,12,05,19,53.10
2012,03,12,05,20,48.30
2012,03,12,05,21,53.10
2012,03,12,05,22,45.10
2012,03,12,05,23,40.20
2012,03,12,05,24,49.90
2012,03,12,05,25,51.50
2012,03,12,05,26,53.10
2012,03,12,05,27,51.50
2012,03,12,05,28,35.40
2012,03,12,05,29,49.90
2012,03,12,05,30,53.10
2012,03,12,05,31,46.70
2012,03,12,05,32,57.90
2012,03,12,05,33,53.10
2012,03,12,05,34,46.70
2012,03,12,05,35,49.90
2012,03,12,05,36,43.50
2012,03,12,05,37,53.10
2012,03,12,05,38,54.70
2012,03,12,05,39,49.90
2012,03,12,05,40,41.80
2012,03,12,05,41,35.40
2012,03,12,05,42,48.30
2012,03,12,05,43,61.20
2012,03,12,05,44,38.60
2012,03,12,05,45,38.60
2012,03,12,05,46,48.30
2012,03,12,05,47,67.60
2012,03,12,05,48,40.20
2012,03,12,05,49,48.30
2012,03,12,05,50,41.80
2012,03,12,05,51,45.10
2012,03,12,05,52,53.10
2012,03,12,05,53,49.90
2012,03,12,05,54,37.00
2012,03,12,05,55,59.50
2012,03,12,05,56,62.70
2012,03,12,05,57,61.20
2012,03,12,05,58,49.90
2012,03,12,05,59,56.30
2012,03,12,06,00,59.50
2012,03,12,06,01,64.40
2012,03,12,06,02,69.20
2012,03,12,06,03,48.30
2012,03,12,06,04,62.70
2012,03,12,06,05,43.50
2012,03,12,06,06,56.30
2012,03,12,06,07,53.10
2012,03,12,06,08,53.10
2012,03,12,06,09,64.40
2012,03,12,06,10,54.70
2012,03,12,06,11,56.30
2012,03,12,06,12,45.10
2012,03,12,06,13,57.90
2012,03,12,06,14,51.50
2012,03,12,06,15,45.10
2012,03,12,06,16,30.60
2012,03,12,06,17,46.70
2012,03,12,06,18,51.50
2012,03,12,06,19,53.10
2012,03,12,06,20,54.70
2012,03,12,06,21,49.90
2012,03,12,06,22,51.50
2012,03,12,06,23,57.90
2012,03,12,06,24,64.40
2012,03,12,06,25,61.20
2012,03,12,06,26,57.90
2012,03,12,06,27,57.90
2012,03,12,06,28,49.90
2012,03,12,06,29,54.70
2012,03,12,06,30,57.90
2012,03,12,06,31,53.10
2012,03,12,06,32,61.20
2012,03,12,06,33,59.50
2012,03,12,06,34,53.10
2012,03,12,06,35,49.90
2012,03,12,06,36,37.00
2012,03,12,06,37,62.70
2012,03,12,06,38,75.60
2012,03,12,06,39,62.70
2012,03,12,06,40,53.10
2012,03,12,06,41,46.70
2012,03,12,06,42,54.70
2012,03,12,06,43,53.10
2012,03,12,06,44,48.30
2012,03,12,06,45,53.10
2012,03,12,06,46,56.30
2012,03,12,06,47,54.70
2012,03,12,06,48,61.20
2012,03,12,06,49,53.10
2012,03,12,06,50,38.60
2012,03,12,06,51,69.20
2012,03,12,06,52,43.50
2012,03,12,06,53,56.30
2012,03,12,06,54,51.50
2012,03,12,06,55,53.10
2012,03,12,06,56,53.10
2012,03,12,06,57,49.90
2012,03,12,06,58,62.70
2012,03,12,06,59,53.10
2012,03,12,07,00,51.50
2012,03,12,07,01,48.30
2012,03,12,07,02,61.20
2012,03,12,07,03,51.50
2012,03,12,07,04,67.60
2012,03,12,07,05,59.50
2012,03,12,07,06,48.30
2012,03,12,07,07,61.20
2012,03,12,07,08,61.20
2012,03,12,07,09,53.10
2012,03,12,07,10,59.50
2012,03,12,07,11,54.70
2012,03,12,07,12,51.50
2012,03,12,07,13,49.90
2012,03,12,07,14,61.20
2012,03,12,07,15,61.20
2012,03,12,07,16,53.10
2012,03,12,07,17,41.80
2012,03,12,07,18,67.60
2012,03,12,07,19,51.50
2012,03,12,07,20,46.70
2012,03,12,07,21,53.10
2012,03,12,07,22,61.20
2012,03,12,07,23,53.10
2012,03,12,07,24,66.00
2012,03,12,07,25,49.90
2012,03,12,07,26,45.10
2012,03,12,07,27,49.90
2012,03,12,07,28,70.80
2012,03,12,07,29,29.00
2012,03,12,07,30,54.70
2012,03,12,07,31,64.40
2012,03,12,07,32,56.30
2012,03,12,07,33,75.60
2012,03,12,07,34,46.70
2012,03,12,07,35,46.70
2012,03,12,07,36,51.50
2012,03,12,07,37,46.70
2012,03,12,07,38,53.10
2012,03,12,07,39,74.00
2012,03,12,07,40,49.90
2012,03,12,07,41,45.10
2012,03,12,11,28,20.90
2012,03,12,11,29,19.30
2012,03,12,11,30,16.10
2012,03,12,11,31,25.70
2012,03,12,11,32,20.90
2012,03,12,11,33,17.70
2012,03,12,11,34,20.90
2012,03,12,11,35,22.50
2012,03,12,11,36,24.20
2012,03,12,11,37,19.30
2012,03,12,11,38,22.50
2012,03,12,11,39,19.30
2012,03,12,11,40,22.50
2012,03,12,11,41,14.50
2012,03,12,11,42,9.60
2012,03,12,11,43,19.30
2012,03,12,11,44,19.30
2012,03,12,11,45,20.90
2012,03,12,11,46,27.40
2012,03,12,11,47,29.00
2012,03,12,11,48,17.70
2012,03,12,11,49,19.30
2012,03,12,11,50,27.40
2012,03,12,11,51,22.50
2012,03,12,11,52,27.40
2012,03,12,11,53,17.70
2012,03,12,11,54,17.70
2012,03,12,11,55,17.70
2012,03,12,11,56,20.90
2012,03,12,11,57,20.90
2012,03,12,11,58,19.30
2012,03,12,11,59,16.10
2012,03,12,12,00,19.30
2012,03,12,12,01,25.70
2012,03,12,12,02,24.20
2012,03,12,12,03,19.30
2012,03,12,12,04,24.20
2012,03,12,12,05,17.70
2012,03,12,12,06,20.90
2012,03,12,12,07,22.50
2012,03,12,12,08,16.10
2012,03,12,12,09,16.10
2012,03,12,12,10,19.30
2012,03,12,12,11,9.60
2012,03,12,12,12,16.10
2012,03,12,12,13,17.70
2012,03,12,12,14,19.30
2012,03,12,12,15,14.50
2012,03,12,12,16,19.30
2012,03,12,12,17,17.70
2012,03,12,12,18,14.50
2012,03,12,12,19,8.10
2012,03,12,12,20,14.50
2012,03,12,12,21,17.70
2012,03,12,12,22,11.30
2012,03,12,12,23,9.60
2012,03,12,12,24,16.10
2012,03,12,12,25,14.50
2012,03,12,12,26,19.30
2012,03,12,12,27,6.40
2012,03,12,12,28,6.40
2012,03,12,12,29,14.50
2012,03,12,12,30,8.10
2012,03,12,12,31,9.60
2012,03,12,12,32,16.10
2012,03,12,12,33,11.30
2012,03,12,12,34,6.40
2012,03,12,12,35,8.10
2012,03,12,12,36,11.30
2012,03,12,12,37,6.40
2012,03,12,12,38,8.10
2012,03,12,12,39,4.80
2012,03,12,12,40,6.40
2012,03,12,12,41,6.40
2012,03,12,12,44,1.60
2012,03,12,12,45,3.20
2012,03,12,12,46,9.60
2012,03,12,12,47,4.80
2012,03,12,12,48,3.20
2012,03,12,12,53,1.60
2012,03,12,12,56,1.60
2012,03,12,12,57,3.20
2012,03,12,12,58,4.80
2012,03,12,12,59,4.80
2012,03,12,13,00,6.40
2012,03,12,13,01,4.80
2012,03,12,13,02,6.40
2012,03,12,13,03,6.40
2012,03,12,13,04,9.60
2012,03,12,13,05,8.10
2012,03,12,13,06,8.10
2012,03,12,13,07,6.40
2012,03,12,13,08,6.40
2012,03,12,13,09,4.80
2012,03,12,13,10,8.10
2012,03,12,13,11,8.10
2012,03,12,13,12,8.10
2012,03,12,13,13,11.30
2012,03,12,13,14,11.30
2012,03,12,13,15,8.10
2012,03,12,13,16,8.10
2012,03,12,13,17,11.30
2012,03,12,13,18,9.60
2012,03,12,13,19,6.40
2012,03,12,13,20,4.80
2012,03,12,13,21,6.40
2012,03,12,13,22,4.80
2012,03,12,13,23,1.60
2012,03,12,13,24,8.10
2012,03,12,13,25,3.20
2012,03,12,13,26,1.60
2012,03,12,13,27,4.80
2012,03,12,13,28,6.40
2012,03,12,13,29,6.40
2012,03,12,13,30,9.60
2012,03,12,13,31,8.10
2012,03,12,13,32,6.40
2012,03,12,13,33,8.10
2012,03,12,13,34,4.80
2012,03,12,13,35,6.40
2012,03,12,13,36,4.80
2012,03,12,13,37,6.40
2012,03,12,13,38,6.40
2012,03,12,13,39,4.80
2012,03,12,13,40,3.20
2012,03,12,13,42,3.20
2012,03,12,13,43,4.80
2012,03,12,13,44,1.60
2012,03,12,13,45,1.60
2012,03,12,13,46,6.40
2012,03,12,13,47,8.10
2012,03,12,13,48,3.20
2012,03,12,13,49,3.20
2012,03,12,13,50,4.80
2012,03,12,13,51,6.40
2012,03,12,13,52,4.80
2012,03,12,13,53,4.80
2012,03,12,13,54,8.10
2012,03,12,13,55,3.20
2012,03,12,13,56,4.80
2012,03,12,13,57,4.80
2012,03,12,13,58,1.60
2012,03,12,13,59,3.20
2012,03,12,14,00,4.80
2012,03,12,14,01,3.20
2012,03,12,14,02,9.60
2012,03,12,14,03,9.60
2012,03,12,14,04,6.40
2012,03,12,14,05,9.60
2012,03,12,14,06,6.40
2012,03,12,14,07,8.10
2012,03,12,14,08,6.40
2012,03,12,14,09,8.10
2012,03,12,14,10,20.90
2012,03,12,14,11,17.70
2012,03,12,14,12,12.90
2012,03,12,14,13,8.10
2012,03,12,14,14,6.40
2012,03,12,14,15,4.80
2012,03,12,14,16,8.10
2012,03,12,14,17,22.50
2012,03,12,14,18,17.70
2012,03,12,14,19,22.50
2012,03,12,14,20,19.30
2012,03,12,14,21,14.50
2012,03,12,14,22,16.10
2012,03,12,14,23,22.50
2012,03,12,14,24,16.10
2012,03,12,14,25,11.30
2012,03,12,14,26,22.50
2012,03,12,14,27,14.50
2012,03,12,14,28,19.30
2012,03,12,14,29,14.50
2012,03,12,14,30,16.10
2012,03,12,14,31,11.30
2012,03,12,14,32,16.10
2012,03,12,14,33,16.10
2012,03,12,14,34,8.10
2012,03,12,14,35,11.30
2012,03,12,14,36,11.30
2012,03,12,14,37,9.60
2012,03,12,14,38,16.10
2012,03,12,14,39,14.50
2012,03,12,14,40,17.70
2012,03,12,14,41,6.40
2012,03,12,14,42,14.50
2012,03,12,14,43,9.60
2012,03,12,14,44,14.50
2012,03,12,14,45,16.10
2012,03,12,14,46,9.60
2012,03,12,14,47,6.40
2012,03,12,14,48,11.30
2012,03,12,14,49,9.60
2012,03,12,14,50,8.10
2012,03,12,14,51,16.10
2012,03,12,14,52,11.30
2012,03,12,14,53,14.50
2012,03,12,14,54,14.50
2012,03,12,14,55,8.10
2012,03,12,14,56,9.60
2012,03,12,14,57,9.60
2012,03,12,14,58,8.10
2012,03,12,14,59,8.10
2012,03,12,15,00,4.80
2012,03,12,15,01,4.80
2012,03,12,15,03,8.10
2012,03,12,15,04,8.10
2012,03,12,15,05,11.30
2012,03,12,15,06,6.40
2012,03,12,15,07,4.80
2012,03,12,15,08,6.40
2012,03,12,15,09,6.40
2012,03,12,15,10,6.40
2012,03,12,15,11,3.20
2012,03,12,15,12,4.80
2012,03,12,15,13,4.80
2012,03,12,15,14,4.80
2012,03,12,15,16,3.20
2012,03,12,15,17,3.20
2012,03,12,15,18,3.20
2012,03,12,15,22,3.20
2012,03,12,15,23,3.20
2012,03,12,15,24,3.20
2012,03,12,15,25,3.20
2012,03,12,15,28,1.60
2012,03,12,15,34,4.80
2012,03,12,15,35,3.20
2012,03,12,15,36,3.20
2012,03,12,15,37,4.80
2012,03,12,15,38,4.80
2012,03,12,15,39,3.20
2012,03,12,15,40,4.80
2012,03,12,15,44,3.20
2012,03,12,15,45,4.80
2012,03,12,15,47,1.60
2012,03,12,15,48,4.80
2012,03,12,15,49,1.60
2012,03,12,16,22,3.20
2012,03,12,16,23,3.20
2012,03,12,16,28,1.60
2012,03,12,16,40,1.60
2012,03,12,17,02,1.60
2012,03,12,17,13,3.20
2012,03,12,17,14,3.20
2012,03,12,17,19,3.20
2012,03,12,17,20,1.60
2012,03,12,17,21,1.60
2012,03,12,17,27,3.20
2012,03,12,17,28,4.80
2012,03,12,17,29,3.20
2012,03,12,18,05,1.60
2012,03,12,18,09,1.60
2012,03,12,18,16,3.20
2012,03,12,18,17,1.60
2012,03,12,18,31,1.60
2012,03,12,19,04,4.80
2012,03,12,19,05,1.60
2012,03,12,19,11,1.60
2012,03,12,19,21,1.60
2012,03,12,19,25,1.60
2012,03,12,19,31,3.20
2012,03,12,19,32,4.80
2012,03,12,19,33,1.60
2012,03,12,19,34,3.20
2012,03,12,19,35,4.80
2012,03,12,19,36,8.10
2012,03,12,19,37,3.20
2012,03,12,19,38,1.60
2012,03,12,19,39,3.20
2012,03,12,19,40,4.80
2012,03,12,19,43,3.20
2012,03,12,19,45,8.10
2012,03,12,19,46,11.30
2012,03,12,19,47,11.30
2012,03,12,19,48,4.80
2012,03,12,19,49,4.80
2012,03,12,19,50,9.60
2012,03,12,19,51,9.60
2012,03,12,19,52,8.10
2012,03,12,19,53,19.30
2012,03,12,19,54,24.20
2012,03,12,19,55,9.60
2012,03,12,19,56,17.70
2012,03,12,19,57,14.50
2012,03,12,19,58,9.60
2012,03,12,19,59,8.10
2012,03,12,20,00,14.50
2012,03,12,20,01,16.10
2012,03,12,20,02,9.60
2012,03,12,20,03,9.60
2012,03,12,20,04,17.70
2012,03,12,20,05,14.50
2012,03,12,20,06,19.30
2012,03,12,20,07,11.30
2012,03,12,20,08,16.10
2012,03,12,20,09,14.50
2012,03,12,20,10,8.10
2012,03,12,20,11,9.60
2012,03,12,20,12,19.30
2012,03,12,20,13,9.60
2012,03,12,20,14,14.50
2012,03,12,20,15,19.30
2012,03,12,20,16,17.70
2012,03,12,20,17,12.90
2012,03,12,20,18,14.50
2012,03,12,20,19,6.40
2012,03,12,20,20,11.30
2012,03,12,20,21,25.70
2012,03,12,20,22,14.50
2012,03,12,20,23,8.10
2012,03,12,20,24,8.10
2012,03,12,20,25,4.80
2012,03,12,20,26,6.40
2012,03,12,20,27,8.10
2012,03,12,20,28,3.20
2012,03,12,20,29,11.30
2012,03,12,20,30,6.40
2012,03,12,20,31,6.40
2012,03,12,20,32,9.60
2012,03,12,20,33,9.60
2012,03,12,20,34,11.30
2012,03,12,20,35,24.20
2012,03,12,20,36,9.60
2012,03,12,20,37,4.80
2012,03,12,20,38,6.40
2012,03,12,20,39,6.40
2012,03,12,20,40,11.30
2012,03,12,20,41,11.30
2012,03,12,20,42,11.30
2012,03,12,20,43,6.40
2012,03,12,20,44,17.70
2012,03,12,20,45,8.10
2012,03,12,20,46,8.10
2012,03,12,20,47,16.10
2012,03,12,20,48,9.60
2012,03,12,20,49,6.40
2012,03,12,20,50,6.40
2012,03,12,20,51,9.60
2012,03,12,20,52,8.10
2012,03,12,20,53,8.10
2012,03,12,20,54,9.60
2012,03,12,20,55,6.40
2012,03,12,20,56,8.10
2012,03,12,20,57,9.60
2012,03,12,20,58,3.20
2012,03,12,20,59,11.30
2012,03,12,21,00,9.60
2012,03,12,21,01,8.10
2012,03,12,21,02,8.10
2012,03,12,21,03,8.10
2012,03,12,21,04,8.10
2012,03,12,21,05,6.40
2012,03,12,21,06,9.60
2012,03,12,21,07,6.40
2012,03,12,21,08,8.10
2012,03,12,21,09,4.80
2012,03,12,21,10,3.20
2012,03,12,21,11,3.20
2012,03,12,21,12,4.80
2012,03,12,21,13,4.80
2012,03,12,21,14,11.30
2012,03,12,21,15,8.10
2012,03,12,21,16,4.80
2012,03,12,21,17,6.40
2012,03,12,21,18,1.60
2012,03,12,21,19,4.80
2012,03,12,21,20,9.60
2012,03,12,21,21,4.80
2012,03,12,21,22,8.10
2012,03,12,21,23,8.10
2012,03,12,21,24,6.40
2012,03,12,21,25,6.40
2012,03,12,21,26,8.10
2012,03,12,21,27,6.40
2012,03,12,21,28,8.10
2012,03,12,21,29,8.10
2012,03,12,21,30,8.10
2012,03,12,21,31,8.10
2012,03,12,21,32,6.40
2012,03,12,21,33,4.80
2012,03,12,21,34,6.40
2012,03,12,21,35,11.30
2012,03,12,21,36,11.30
2012,03,12,21,37,6.40
2012,03,12,21,38,1.60
2012,03,12,21,40,3.20
2012,03,12,21,41,1.60
2012,03,12,21,42,8.10
2012,03,12,21,43,4.80
2012,03,12,21,44,4.80
2012,03,12,21,45,6.40
2012,03,12,21,46,9.60
2012,03,12,21,47,9.60
2012,03,12,21,48,9.60
2012,03,12,21,49,6.40
2012,03,12,21,50,6.40
2012,03,12,21,51,6.40
2012,03,12,21,52,9.60
2012,03,12,21,53,16.10
2012,03,12,21,54,14.50
2012,03,12,21,55,9.60
2012,03,12,21,56,14.50
2012,03,12,21,57,17.70
2012,03,12,21,58,14.50
2012,03,12,21,59,11.30
2012,03,12,22,00,20.90
2012,03,12,22,01,14.50
2012,03,12,22,02,9.60
2012,03,12,22,03,8.10
2012,03,12,22,04,8.10
2012,03,12,22,05,8.10
2012,03,12,22,06,11.30
2012,03,12,22,07,11.30
2012,03,12,22,08,6.40
2012,03,12,22,09,8.10
2012,03,12,22,10,8.10
2012,03,12,22,11,6.40
2012,03,12,22,12,9.60
2012,03,12,22,13,16.10
2012,03,12,22,14,14.50
2012,03,12,22,15,14.50
2012,03,12,22,16,22.50
2012,03,12,22,17,25.70
2012,03,12,22,18,17.70
2012,03,12,22,19,11.30
2012,03,12,22,20,11.30
2012,03,12,22,21,20.90
2012,03,12,22,22,22.50
2012,03,12,22,23,19.30
2012,03,12,22,24,16.10
2012,03,12,22,25,16.10
2012,03,12,22,26,16.10
2012,03,12,22,27,14.50
2012,03,12,22,28,22.50
2012,03,12,22,29,22.50
2012,03,12,22,30,8.10
2012,03,12,22,31,17.70
2012,03,12,22,32,16.10
2012,03,12,22,33,12.90
2012,03,12,22,34,14.50
2012,03,12,22,35,14.50
2012,03,12,22,36,19.30
2012,03,12,22,37,24.20
2012,03,12,22,38,20.90
2012,03,12,22,39,19.30
2012,03,12,22,40,25.70
2012,03,12,22,41,17.70
2012,03,12,22,42,20.90
2012,03,12,22,43,20.90
2012,03,12,22,44,22.50
2012,03,12,22,45,16.10
2012,03,12,22,46,9.60
2012,03,12,22,47,14.50
2012,03,12,22,48,14.50
2012,03,12,22,49,12.90
2012,03,12,22,50,17.70
2012,03,12,22,51,16.10
2012,03,12,22,52,11.30
2012,03,12,22,53,17.70
2012,03,12,22,54,16.10
2012,03,12,22,55,14.50
2012,03,12,22,56,29.00
2012,03,12,22,57,19.30
2012,03,12,22,58,19.30
2012,03,12,22,59,11.30
2012,03,12,23,00,20.90
2012,03,12,23,01,19.30
2012,03,12,23,02,14.50
2012,03,12,23,03,11.30
2012,03,12,23,04,19.30
2012,03,12,23,05,9.60
2012,03,12,23,06,11.30
2012,03,12,23,07,14.50
2012,03,12,23,08,16.10
2012,03,12,23,09,11.30
2012,03,12,23,10,6.40
2012,03,12,23,11,17.70
2012,03,12,23,12,9.60
2012,03,12,23,13,8.10
2012,03,12,23,14,8.10
2012,03,12,23,15,6.40
2012,03,12,23,16,6.40
2012,03,12,23,17,9.60
2012,03,12,23,18,6.40
2012,03,12,23,19,11.30
2012,03,12,23,20,8.10
2012,03,12,23,21,14.50
2012,03,12,23,22,14.50
2012,03,12,23,23,8.10
2012,03,12,23,24,4.80
2012,03,12,23,25,3.20
2012,03,12,23,26,8.10
2012,03,12,23,27,14.50
2012,03,12,23,28,6.40
2012,03,12,23,29,4.80
2012,03,12,23,30,6.40
2012,03,12,23,31,4.80
2012,03,12,23,32,8.10
2012,03,12,23,33,4.80
2012,03,12,23,34,8.10
2012,03,12,23,35,14.50
2012,03,12,23,36,14.50
2012,03,12,23,37,17.70
2012,03,12,23,38,8.10
2012,03,12,23,39,11.30
2012,03,12,23,40,14.50
2012,03,12,23,41,12.90
2012,03,12,23,42,4.80
2012,03,12,23,43,4.80
2012,03,12,23,44,14.50
2012,03,12,23,45,16.10
2012,03,12,23,46,8.10
2012,03,12,23,47,11.30
2012,03,12,23,48,8.10
2012,03,12,23,49,14.50
2012,03,12,23,50,12.90
2012,03,12,23,51,14.50
2012,03,12,23,52,20.90
2012,03,12,23,53,19.30
2012,03,12,23,54,8.10
2012,03,12,23,55,12.90
2012,03,12,23,56,22.50
2012,03,12,23,57,14.50
2012,03,12,23,58,16.10
2012,03,12,23,59,9.60
